When you browse on this site, cookies collect data to enhance your experience and personalize the content and advertising you see.
Visit our Privacy Policy to learn more. By continuing to use the site, you agree to this use of cookies and data.
  • In Hungary
  • List of Countries
  • For 7 days
  • Water Temperature
  • Satellite Maps
  • Weather Map
  • News
  • Weather Widgets
  • user-avatar
    Login

    Hourly Weather Marialva

    Today, 19 January, Saturday

    Time Temperature Precipitation Wind Pressure Humidity
    00:00 +22°C° 0.6 mm 0 mps 704 mmHg 90%
    01:00 +22°C° 0 mm 0 mps 704 mmHg 90%
    02:00 +21°C° 0 mm 0 mps 704 mmHg 90%
    03:00 +21°C° 0 mm 0 mps 704 mmHg 90%
    04:00 +21°C° 0 mm 0 mps 704 mmHg 91%
    05:00 +21°C° 0 mm 0 mps 704 mmHg 91%
    06:00 +23°C° 0 mm 1 mps 704 mmHg 92%
    07:00 +24°C° 0.5 mm 1 mps 704 mmHg 89%
    08:00 +24°C° 0.5 mm 0 mps 704 mmHg 86%
    09:00 +25°C° 0.5 mm 0 mps 705 mmHg 83%
    10:00 +28°C° 2.2 mm 1 mps 705 mmHg 80%
    11:00 +28°C° 2.2 mm 1 mps 705 mmHg 77%
    12:00 +29°C° 2.2 mm 1 mps 705 mmHg 74%
    13:00 +30°C° 0.2 mm 1 mps 705 mmHg 70%
    14:00 +30°C° 0.2 mm 2 mps 705 mmHg 66%
    15:00 +31°C° 0.2 mm 2 mps 704 mmHg 63%
    16:00 +30°C° 1.9 mm 2 mps 704 mmHg 71%
    17:00 +29°C° 1.9 mm 2 mps 704 mmHg 80%
    18:00 +27°C° 1.9 mm 2 mps 703 mmHg 89%
    19:00 +26°C° 0.1 mm 1 mps 703 mmHg 91%
    20:00 +25°C° 0.1 mm 1 mps 703 mmHg 92%
    21:00 +24°C° 0.1 mm 1 mps 703 mmHg 93%
    22:00 +24°C° 0 mm 1 mps 703 mmHg 93%
    23:00 +22°C° 0 mm 0 mps 703 mmHg 93%

    Tomorrow, 20 January, Sunday

    Time Temperature Precipitation Wind Pressure Humidity
    00:00 +21°C° 0 mm 0 mps 704 mmHg 92%
    01:00 +23°C° 0 mm 1 mps 703 mmHg 92%
    02:00 +23°C° 0 mm 1 mps 703 mmHg 92%
    03:00 +23°C° 0 mm 1 mps 702 mmHg 92%
    04:00 +22°C° 0 mm 1 mps 703 mmHg 93%
    05:00 +22°C° 0 mm 1 mps 703 mmHg 93%
    06:00 +22°C° 0 mm 1 mps 703 mmHg 94%
    07:00 +24°C° 0.3 mm 1 mps 704 mmHg 91%
    08:00 +25°C° 0.3 mm 2 mps 704 mmHg 88%
    09:00 +27°C° 0.3 mm 2 mps 705 mmHg 85%
    10:00 +27°C° 1.3 mm 2 mps 705 mmHg 84%
    11:00 +28°C° 1.3 mm 2 mps 705 mmHg 82%
    12:00 +29°C° 1.3 mm 3 mps 705 mmHg 81%
    13:00 +29°C° 1.9 mm 2 mps 704 mmHg 80%
    14:00 +29°C° 1.9 mm 2 mps 704 mmHg 80%
    15:00 +29°C° 1.9 mm 2 mps 704 mmHg 80%
    16:00 +29°C° 2 mm 1 mps 703 mmHg 83%
    17:00 +28°C° 2 mm 1 mps 703 mmHg 85%
    18:00 +28°C° 2 mm 1 mps 703 mmHg 87%
    19:00 +26°C° 0.3 mm 1 mps 703 mmHg 89%
    20:00 +25°C° 0.3 mm 1 mps 703 mmHg 90%
    21:00 +24°C° 0.3 mm 1 mps 704 mmHg 91%
    22:00 +24°C° 0 mm 1 mps 704 mmHg 92%
    23:00 +24°C° 0 mm 1 mps 704 mmHg 92%

    Day after tomorrow, 21 January, Monday

    Time Temperature Precipitation Wind Pressure Humidity
    00:00 +23°C° 0 mm 1 mps 704 mmHg 92%
    01:00 +23°C° 0 mm 1 mps 704 mmHg 92%
    02:00 +23°C° 0 mm 1 mps 703 mmHg 93%
    03:00 +23°C° 0 mm 1 mps 703 mmHg 93%
    04:00 +23°C° 0 mm 1 mps 703 mmHg 93%
    05:00 +22°C° 0 mm 1 mps 703 mmHg 94%
    06:00 +22°C° 0 mm 1 mps 704 mmHg 94%
    07:00 +24°C° 0.1 mm 1 mps 704 mmHg 90%
    08:00 +26°C° 0.1 mm 1 mps 705 mmHg 86%
    09:00 +28°C° 0.1 mm 1 mps 706 mmHg 82%
    10:00 +28°C° 1.3 mm 2 mps 706 mmHg 80%
    11:00 +29°C° 1.3 mm 2 mps 706 mmHg 77%
    12:00 +30°C° 1.3 mm 2 mps 706 mmHg 75%
    13:00 +30°C° 1.5 mm 3 mps 705 mmHg 76%
    14:00 +30°C° 1.5 mm 3 mps 705 mmHg 77%
    15:00 +30°C° 1.5 mm 3 mps 704 mmHg 79%
    16:00 +29°C° 1.3 mm 2 mps 704 mmHg 82%
    17:00 +29°C° 1.3 mm 2 mps 704 mmHg 85%
    18:00 +28°C° 1.3 mm 1 mps 704 mmHg 88%
    19:00 +27°C° 0.4 mm 1 mps 704 mmHg 89%
    20:00 +26°C° 0.4 mm 1 mps 704 mmHg 89%
    21:00 +25°C° 0.4 mm 1 mps 705 mmHg 90%
    22:00 +25°C° 0 mm 1 mps 705 mmHg 90%
    23:00 +24°C° 0 mm 1 mps 705 mmHg 91%

    22 January, Tuesday

    Time Temperature Precipitation Wind Pressure Humidity
    00:00 +24°C° 0 mm 2 mps 705 mmHg 91%
    01:00 +24°C° 0 mm 2 mps 705 mmHg 92%
    02:00 +24°C° 0 mm 2 mps 704 mmHg 92%
    03:00 +24°C° 0 mm 2 mps 704 mmHg 92%
    04:00 +23°C° 0 mm 2 mps 704 mmHg 92%
    05:00 +23°C° 0 mm 2 mps 704 mmHg 93%
    06:00 +23°C° 0 mm 2 mps 705 mmHg 93%
    07:00 +25°C° 0.6 mm 2 mps 705 mmHg 90%
    08:00 +26°C° 0.6 mm 2 mps 706 mmHg 86%
    09:00 +28°C° 0.6 mm 2 mps 706 mmHg 83%
    10:00 +29°C° 1.8 mm 2 mps 706 mmHg 80%
    11:00 +30°C° 1.8 mm 2 mps 706 mmHg 77%
    12:00 +31°C° 1.8 mm 3 mps 706 mmHg 74%
    13:00 +31°C° 1.6 mm 3 mps 705 mmHg 74%
    14:00 +31°C° 1.6 mm 3 mps 705 mmHg 74%
    15:00 +31°C° 1.6 mm 2 mps 705 mmHg 74%
    16:00 +30°C° 0.9 mm 2 mps 704 mmHg 77%
    17:00 +30°C° 0.9 mm 1 mps 704 mmHg 80%
    18:00 +29°C° 0.9 mm 1 mps 704 mmHg 83%
    19:00 +28°C° 0.2 mm 1 mps 704 mmHg 85%
    20:00 +27°C° 0.2 mm 1 mps 704 mmHg 86%
    21:00 +26°C° 0.2 mm 1 mps 705 mmHg 87%
    22:00 +25°C° 0 mm 1 mps 705 mmHg 87%
    23:00 +25°C° 0 mm 1 mps 705 mmHg 88%

    23 January, Wednesday

    Time Temperature Precipitation Wind Pressure Humidity
    00:00 +24°C° 0 mm 1 mps 705 mmHg 88%
    01:00 +24°C° 0 mm 1 mps 704 mmHg 89%
    02:00 +24°C° 0 mm 1 mps 704 mmHg 89%
    03:00 +23°C° 0 mm 2 mps 704 mmHg 90%
    04:00 +23°C° 0 mm 2 mps 704 mmHg 90%
    05:00 +23°C° 0 mm 1 mps 704 mmHg 90%
    06:00 +23°C° 0 mm 1 mps 704 mmHg 90%
    07:00 +25°C° 0 mm 1 mps 705 mmHg 85%
    08:00 +27°C° 0 mm 1 mps 706 mmHg 81%
    09:00 +29°C° 0 mm 1 mps 706 mmHg 76%
    10:00 +30°C° 1.1 mm 1 mps 706 mmHg 73%
    11:00 +31°C° 1.1 mm 1 mps 706 mmHg 69%
    12:00 +32°C° 1.1 mm 1 mps 706 mmHg 66%
    13:00 +32°C° 1.2 mm 1 mps 705 mmHg 67%
    14:00 +32°C° 1.2 mm 2 mps 705 mmHg 69%
    15:00 +32°C° 1.2 mm 2 mps 705 mmHg 71%
    16:00 +31°C° 1.7 mm 2 mps 705 mmHg 76%
    17:00 +29°C° 1.7 mm 1 mps 704 mmHg 81%
    18:00 +28°C° 1.7 mm 1 mps 704 mmHg 87%
    19:00 +27°C° 0.2 mm 1 mps 704 mmHg 88%
    20:00 +26°C° 0.2 mm 1 mps 704 mmHg 88%
    21:00 +25°C° 0.2 mm 1 mps 704 mmHg 89%
    22:00 +25°C° 0 mm 1 mps 704 mmHg 90%
    23:00 +24°C° 0 mm 1 mps 704 mmHg 91%

    24 January, Thursday

    Time Temperature Precipitation Wind Pressure Humidity
    00:00 +24°C° 0 mm 2 mps 704 mmHg 91%
    01:00 +24°C° 0 mm 2 mps 704 mmHg 91%
    02:00 +24°C° 0 mm 2 mps 703 mmHg 91%
    03:00 +23°C° 0 mm 2 mps 702 mmHg 91%
    04:00 +23°C° 0 mm 1 mps 703 mmHg 91%
    05:00 +23°C° 0 mm 1 mps 703 mmHg 91%
    06:00 +23°C° 0 mm 1 mps 703 mmHg 91%
    07:00 +24°C° 0 mm 1 mps 704 mmHg 87%
    08:00 +26°C° 0 mm 1 mps 704 mmHg 83%
    09:00 +27°C° 0 mm 1 mps 705 mmHg 79%
    10:00 +29°C° 0 mm 1 mps 705 mmHg 73%
    11:00 +30°C° 0 mm 1 mps 705 mmHg 67%
    12:00 +32°C° 0 mm 1 mps 705 mmHg 61%
    13:00 +32°C° 0 mm 2 mps 704 mmHg 61%
    14:00 +32°C° 0 mm 2 mps 704 mmHg 62%
    15:00 +32°C° 0 mm 2 mps 703 mmHg 62%
    16:00 +31°C° 2 mm 2 mps 703 mmHg 70%
    17:00 +30°C° 2 mm 2 mps 703 mmHg 78%
    18:00 +28°C° 2 mm 2 mps 703 mmHg 85%
    19:00 +27°C° 0 mm 2 mps 703 mmHg 87%
    20:00 +26°C° 0 mm 2 mps 703 mmHg 89%
    21:00 +25°C° 0 mm 2 mps 703 mmHg 90%
    22:00 +24°C° 0 mm 2 mps 703 mmHg 91%
    23:00 +24°C° 0 mm 2 mps 704 mmHg 91%
    Show more